GEESAT-3 02

Last updated on Sun Oct 06 2024 00:02:04 GMT+0000 (Coordinated Universal Time)

1 61012U 24159B 24279.54776065 .00017545 00000+0 17272-2 0 9997 2 61012 49.9926 99.8487 0009509 18.3416 341.7867 14.92056845 4455
UTC large
Height (km)
Speed (km/s)
/
Latitude / Longitude
Inclination (degrees)
Orbital Period (minutes)
Azimuth
Elevation
Range (km)
Doppler Factor

Next 0 passes for location: London (51.5072 / 0.1276)

Sorry there are no passes over London.